Regional Weather Roundup
Issued by NWS

Home | Current Version | Previous Version | Graphics & Text | Print | Product List | Glossary On
Versions: 1 2 3 4 5 6 7 8 9 10 11 12 13 14 15 16 17 18 19 20 21 22 23 24 25 26 27 28 29 30 31 32 33 34 35 36 37 38 39 40 41 42 43 44 45 46 47 48 49 50
788
ASUS44 KJAN 202310
RWRMS

MISSISSIPPI HOURLY WEATHER ROUNDUP
NATIONAL WEATHER SERVICE JACKSON MS
600 PM CDT SUN APR 20 2014

NOTE: "FAIR: INDICATES FEW OR NO CLOUDS BELOW 12,000 FEET WITH NO
SIGNIFICANT WEATHER AND/OR OBSTRUCTIONS TO VISIBILITY.

MSZ001>002-007>008-010>013-018>021-025>028-034>036-210000-
NORTHWEST MISSISSIPPI

CITY           SKY/WX    TMP DP  RH WIND       PRES   REMARKS
CLARKSDALE       N/A     77  50  38 CALM      30.11S
CLEVELAND      FAIR      78  49  35 S3        30.09F
GREENWOOD      SUNNY     79  47  32 E6        30.10F
GREENVILLE     MOSUNNY   80  47  31 SE10      30.08F
GRENADA        FAIR      77  46  33 E5        30.11F
OLIVE BRANCH   MOSUNNY   77  48  36 S8        30.11S
OXFORD         LGT RAIN  77  45  31 SW5       30.12F
TUNICA         CLEAR     77  46  33 S7        30.10F
$$

MSZ003>006-009-014>017-022>024-029>033-037>039-210000-
NORTHEAST MISSISSIPPI

CITY           SKY/WX    TMP DP  RH WIND       PRES   REMARKS
BELMONT        FAIR      77  46  33 CALM      30.11S
COLUMBUS AFB   MOSUNNY   75  48  38 W5        30.11F
CORINTH        FAIR      77  43  29 CALM      30.11S
GOLDN TRIANGLE SUNNY     75  48  38 S6        30.14F
STARKVILLE     FAIR      73  50  43 S3        30.12F
TUPELO         MOSUNNY   77  46  33 W5        30.11S
$$

MSZ040-058-210000-
CENTRAL MISSISSIPPI

CITY           SKY/WX    TMP DP  RH WIND       PRES   REMARKS
JACKSON INTL   MOSUNNY   80  46  30 CALM      30.10S
JACKSON HAWKNS SUNNY     80  46  30 CALM      30.10F
MERIDIAN KEY   SUNNY     76  48  37 CALM      30.11F
MERIDIAN NAS   MOSUNNY   76  48  37 E9        30.12F
RAYMOND        FAIR      79  73  83 E3        30.10S
VICKSBURG      SUNNY     81  52  36 E6        30.08F
$$

MSZ059>079-210000-
SOUTH MISSISSIPPI

CITY           SKY/WX    TMP DP  RH WIND       PRES   REMARKS
BROOKHAVEN     FAIR      81  52  36 CALM      30.12S
COLUMBIA       FAIR      79  50  36 MISG      30.10S
HATTIESBURG    SUNNY     80  49  33 NE5       30.11S
MCCOMB         SUNNY     80  47  31 E3        30.10S
NATCHEZ        SUNNY     81  54  39 NW3       30.08F
PINE BELT      SUNNY     77  48  36 NE6       30.12F
$$

MSZ080>082-210000-
COASTAL MISSISSIPPI

CITY           SKY/WX    TMP DP  RH WIND       PRES   REMARKS
BAY ST LOUIS   MOSUNNY   75  57  53 SE7       30.10F
BILOXI         SUNNY     68  57  68 S7        30.12S
PASCAGOULA     SUNNY     71  58  63 SW7       30.11S
GULFPORT       SUNNY     70  58  65 SE10      30.11S
$$



USA.gov is the U.S. government's official web portal to all federal, state and local government web resources and services.